san ya , China , Asia

  • Sunday
    March 29

      Cloudy

      77 °F

      Southeast

      3~4L 

  • Monday
    March 30

    Cloudy  Cloudy

    93 °F  77 °F

    Southeast  Southeast

    4~5L   4~5L 

  • Tuesday
    March 31

    Cloudy  Cloudy

    88 °F  77 °F

    Southeast  East

    3~4L   3~4L 

  • Wednesday
    April 1

    Cloudy  Cloudy

    88 °F  75 °F

    Southeast  No wind

    4~5L    

  • Thursday
    April 2

    Cloudy  Cloudy

    90 °F  77 °F

    No wind  Southeast

       3~4L 

  • Friday
    April 3

    Cloudy  Cloudy

    90 °F  77 °F

    No wind  No wind

        

  • Saturday
    April 4

    Cloudy  Cloudy

    90 °F  77 °F

    No wind  No wind

        

Date   Weather Temperature Humidity Total_rain Visibility Wind
23:00 Cloudy 78°F 96.8% 0mm - Southeast  5.0m/s
02:00 Cloudy 78°F 97.2% 0mm - Southeast  4.4m/s
05:00 Cloudy 78°F 98.7% 0mm - Southeast  4.4m/s
08:00 Cloudy 83°F 95.4% 0mm - Southeast  4.2m/s
11:00 Cloudy 92°F 89.3% 0mm - Southeast  3.3m/s
14:00 Cloudy 93°F 86% 0mm - Southeast  3.5m/s
17:00 Cloudy 88°F 91.6% 0mm - Southeast  3.7m/s
20:00 Cloudy 81°F 81% 0mm - Southeast  4.5m/s
08:00 Cloudy 83°F 95.4% 0mm - Southeast  4.2m/s
11:00 Cloudy 92°F 89.3% 0mm - Southeast  3.3m/s
14:00 Cloudy 93°F 86% 0mm - Southeast  3.5m/s
17:00 Cloudy 88°F 91.6% 0mm - Southeast  3.7m/s
20:00 Cloudy 81°F 81% 0mm - Southeast  4.5m/s
23:00 Cloudy 80°F 97.2% 0mm - Southeast  4.1m/s
02:00 Cloudy 79°F 98.4% 0mm - Southeast  3.5m/s
05:00 Cloudy 79°F 97.7% 0mm - Southeast  4.3m/s
08:00 Cloudy 80°F 97.4% 0mm - Southeast  3.1m/s
11:00 Cloudy 87°F 90.9% 0mm - Southeast  4.1m/s
14:00 Cloudy 87°F 88.8% 0mm - Southeast  4.1m/s
17:00 Cloudy 85°F 93.3% 0mm - Southeast  3.6m/s
20:00 Cloudy 79°F 84.8% 0mm - Southeast  4.7m/s
23:00 Cloudy 80°F 98.2% 0mm - Southeast  3.8m/s
02:00 Cloudy 80°F 99.4% 0mm - Southeast  3.4m/s
05:00 Cloudy 79°F 99.5% 0mm - Southeast  4.0m/s
08:00 Cloudy 82°F 98.2% 0mm - Southeast  3.6m/s
11:00 Cloudy 85°F 91.7% 0mm - Southeast  4.2m/s
14:00 Cloudy 88°F 89.3% 0mm - Southeast  4.3m/s
17:00 Cloudy 83°F 92.7% 0mm - Southeast  4.7m/s
20:00 Cloudy 78°F 84.2% 0mm - Southeast  4.7m/s
23:00 Cloudy 79°F 98.6% 0mm - Southeast  4.2m/s
02:00 Cloudy 79°F 98.1% 0mm - Southeast  4.4m/s
05:00 Cloudy 77°F 97.6% 0mm - Southeast  4.7m/s
08:00 Cloudy 79°F 94.1% 0mm - Southeast  5.2m/s
11:00 Cloudy 87°F 90.7% 0mm - Southeast  5.2m/s
14:00 Cloudy 89°F 90.5% 0mm - Southeast  6.3m/s
17:00 Cloudy 84°F 87% 0mm - Southeast  5.6m/s
20:00 Cloudy 80°F 84.6% 0mm - Northeast  5.3m/s
23:00 Cloudy 78°F 94.7% 0mm - Northeast  5.9m/s
02:00 Cloudy 78°F 96.2% 0mm - Northeast  6.0m/s
05:00 Cloudy 80°F 97.3% 0mm - Northeast  5.4m/s
08:00 Cloudy 81°F 96.1% 0mm - Northeast  6.3m/s
11:00 Cloudy 89°F 90.2% 0mm - Southeast  6.4m/s
14:00 Cloudy 87°F 90% 0mm - Southeast  5.7m/s
17:00 Cloudy 84°F 93.9% 0mm - Southeast  5.8m/s
20:00 Cloudy 82°F 84.4% 0mm - Northeast  5.6m/s
23:00 Sunny 80°F 98.1% 0mm - Southeast  6.6m/s
02:00 Cloudy 78°F 98.3% 0mm - Northeast  6.5m/s
05:00 Cloudy 79°F 99.1% 0mm - Southeast  6.2m/s
08:00 Cloudy 80°F 97.8% 0mm - Northeast  6.1m/s
11:00 Sunny 89°F 89.7% 0mm - Southeast  5.5m/s
14:00 Cloudy 89°F 87.2% 0mm - Southeast  6.0m/s
17:00 Cloudy 85°F 92.7% 0mm - Southeast  5.3m/s
20:00 Cloudy 79°F 81.3% 0mm - Northeast  5.9m/s
23:00 Cloudy 78°F 96.7% 0mm - Southeast  4.6m/s
02:00 Cloudy 78°F 96.4% 0mm - Northeast  5.4m/s
05:00 Cloudy 78°F 95.8% 0mm - Southeast  5.5m/s